Voltar ao catálogo

DAQI-2

AtivoCiênciaSSO
NORAD 68760·PAYLOAD·🇨🇳 China

Lançado Apr 17, 2026 de Jiuquan Satellite Launch Center

Loading…

Próximas Passagens (próximas 24 horas)

TLE

AtualizadoSource: Space-Track

Época: Sep 14, 2026, 14:51 UTC

1 68760U 26084A   26257.61914733  .00000277  00000-0  71059-4 0  9995
2 68760  98.2807 331.3718 0002300 149.4836 210.6497 14.57587132 21925

Acompanhe DAQI-2 em tempo real com AllMySat

Download on the App Store